Cozieni, Romania

11:02 PM EET on November 23, 2017 (GMT +0200)
Cozieni

Weather History for 15420 - April, 2009

Change the Weather History Date:

Monday, April 6, 2009

  Actual Average Record
Temperature  
Mean Temperature 52 °F -  
Max Temperature 70 °F 66 °F - ()
Min Temperature 35 °F 44 °F - ()
Degree Days  
Heating Degree Days 12    
Growing Degree Days 2 (Base 50)    
Moisture  
Dew Point 37 °F    
Average Humidity 55    
Maximum Humidity 100    
Minimum Humidity 12    
Precipitation  
Precipitation 0.00 in 0.07 in - ()
Sea Level Pressure  
Sea Level Pressure 30.03 in    
Wind  
Wind Speed 4 mph ()    
Max Wind Speed 15 mph    
Max Gust Speed -    
Visibility 6.0 miles    
Events      
T = Trace of Precipitation, MM = Missing Value Source: Averaged Metar Reports

Daily Weather History Graph

Daily Weather History Graph

Search for Another Location

Airport or City:

Trip Planner

Search our weather history database for the weather conditions in past years. The results will help you decide how hot, cold, wet, or windy it might be!

Date:

Astronomy

Apr. 06, 2009 Rise Set
Actual Time 6:47 AM EEST 7:48 PM EEST
Civil Twilight 6:17 AM EEST 8:18 PM EEST
Nautical Twilight 5:42 AM EEST 8:54 PM EEST
Astronomical Twilight 5:05 AM EEST 9:31 PM EEST
Moon 4:28 PM EEST (4/6) 5:03 AM EEST (4/6)
Length of Visible Light 14h 00m
Length of Day
13h 01m
Waxing Gibbous, 88% of the Moon is Illuminated
Apr 6
Waxing Gibbous
Apr 9
Full
Apr 17
Last Quarter
Apr 25
New
May 1
First Quarter

Hourly Weather History & Observations

Time (EEST) Temp. Windchill Dew Point Humidity Pressure Visibility Wind Dir Wind Speed Gust Speed Precip Events Conditions
12:00 AM 44 °F - 37 °F 68% 30.07 in 6 mi Calm Calm - -  
12:00 AM 51.8 °F - 42.8 °F 71% 30.04 in - NE 3.5 mph - N/A   Clear
12:30 AM 50.0 °F - 42.8 °F 76% 30.04 in - Variable 1.2 mph - N/A   Clear
1:00 AM 43 °F - 38 °F 75% 30.07 in 6 mi North 2.2 mph - -  
1:30 AM 48.2 °F - 42.8 °F 82% 30.04 in - Calm Calm - N/A   Clear
2:00 AM 41 °F - 37 °F 81% 30.08 in 6 mi North 2.2 mph - -  
2:00 AM 48.2 °F - 42.8 °F 82% 30.04 in - Calm Calm - N/A   Clear
2:30 AM 48.2 °F - 41.0 °F 76% 30.04 in - Calm Calm - N/A   Clear
3:00 AM 40 °F - 38 °F 88% 30.08 in 6 mi North 2.2 mph - -  
3:00 AM 48.2 °F - 41.0 °F 76% 30.04 in - Calm Calm - N/A   Clear
3:30 AM 46.4 °F - 41.0 °F 81% 30.04 in - Calm Calm - N/A   Clear
4:00 AM 38 °F - 36 °F 90% 30.09 in 6 mi North 2.2 mph - -  
4:00 AM 46.4 °F - 42.8 °F 87% 30.04 in - Variable 2.3 mph - N/A   Clear
4:30 AM 44.6 °F - 41.0 °F 87% 30.04 in - NNE 2.3 mph - N/A   Clear
5:00 AM 38 °F - 37 °F 93% 30.08 in 6 mi NNE 2.2 mph - -  
5:00 AM 44.6 °F - 41.0 °F 87% 30.04 in - NNE 1.2 mph - N/A   Clear
5:30 AM 44.6 °F - 41.0 °F 87% 30.04 in - North 1.2 mph - N/A   Clear
6:00 AM 37 °F - 36 °F 95% 30.08 in 6 mi North 2.2 mph - -  
6:00 AM 44.6 °F - 41.0 °F 87% 30.04 in - NNE 2.3 mph - N/A   Clear
6:30 AM 42.8 °F - 42.8 °F 100% 30.04 in - North 2.3 mph - N/A   Clear
7:00 AM 35 °F - 35 °F 100% 30.08 in 6 mi North 2.2 mph - -  
7:00 AM 42.8 °F 41.1 °F 41.0 °F 93% 30.04 in - North 3.5 mph - N/A   Clear
7:30 AM 42.8 °F - 42.8 °F 100% 30.04 in - Calm Calm - N/A   Clear
8:00 AM 41 °F - 40 °F 93% 30.09 in 6 mi ENE 2.2 mph - -  
8:00 AM 44.6 °F 43.1 °F 44.6 °F 100% 30.06 in - NE 3.5 mph - N/A   Clear
8:30 AM 48.2 °F - 44.6 °F 87% 30.06 in - ENE 3.5 mph - N/A   Clear
9:00 AM 49 °F - 36 °F 50% 30.09 in 6 mi ENE 4.5 mph - -  
9:00 AM 50.0 °F - 42.8 °F 76% 30.06 in - ENE 4.6 mph - N/A   Clear
9:30 AM 51.8 °F - 42.8 °F 71% 30.06 in - ENE 6.9 mph - N/A   Clear
10:00 AM 53 °F - 34 °F 37% 30.09 in 6 mi ENE 4.5 mph - -  
10:00 AM 55.4 °F - 42.8 °F 63% 30.06 in - ENE 6.9 mph - N/A   Clear
10:30 AM 57.2 °F - 39.2 °F 51% 30.06 in - NE 5.8 mph - N/A   Clear
11:00 AM 59 °F - 35 °F 29% 30.09 in 6 mi ENE 4.5 mph - -  
11:00 AM 59.0 °F - 39.2 °F 48% 30.06 in - ENE 10.4 mph - N/A   Clear
11:30 AM 60.8 °F - 41.0 °F 48% 30.06 in - ENE 6.9 mph - N/A   Clear
12:00 PM 62 °F - 35 °F 25% 30.09 in 6 mi East 6.7 mph - -  
12:00 PM 62.6 °F - 35.6 °F 37% 30.06 in - East 9.2 mph - N/A   Clear
12:30 PM 64.4 °F - 35.6 °F 34% 30.04 in - ENE 8.1 mph - N/A   Clear
1:00 PM 65 °F - 31 °F 17% 30.08 in 6 mi ENE 6.7 mph - -  
1:00 PM 66.2 °F - 37.4 °F 35% 30.04 in - ENE 10.4 mph - N/A   Clear
1:30 PM 66.2 °F - 37.4 °F 35% 30.01 in - ENE 12.7 mph - N/A   Clear
2:00 PM 67 °F - 32 °F 17% 30.04 in 6 mi ENE 8.9 mph - -  
2:00 PM 68.0 °F - 35.6 °F 30% 30.01 in - NE 12.7 mph - N/A   Clear
2:30 PM 69.8 °F - 35.6 °F 28% 30.01 in - ENE 12.7 mph - N/A   Clear
3:00 PM 69 °F - 30 °F 13% 30.02 in 6 mi East 8.9 mph - -   Clear
3:00 PM 69.8 °F - 33.8 °F 27% 29.98 in - ENE 15.0 mph - N/A   Clear
3:30 PM 69.8 °F - 33.8 °F 27% 29.98 in - ENE 15.0 mph - N/A   Clear
4:00 PM 70 °F - 28 °F 12% 30.01 in 6 mi East 8.9 mph - -   Clear
4:00 PM 69.8 °F - 35.6 °F 28% 29.98 in - ENE 15.0 mph - N/A   Clear
4:30 PM 68.0 °F - 35.6 °F 30% 29.98 in - ENE 13.8 mph - N/A   Clear
5:00 PM 68 °F - 28 °F 13% 30.00 in 6 mi ENE 11.2 mph - -   Clear
5:00 PM 68.0 °F - 35.6 °F 30% 29.95 in - ENE 15.0 mph - N/A   Clear
5:30 PM 69.8 °F - 35.6 °F 28% 29.95 in - ENE 13.8 mph - N/A   Clear
6:00 PM 69 °F - 30 °F 13% 29.98 in 6 mi East 8.9 mph - -   Clear
6:30 PM 66.2 °F - 37.4 °F 35% 29.95 in - East 10.4 mph - N/A   Clear
7:00 PM 65 °F - 30 °F 16% 29.97 in 6 mi East 8.9 mph - -   Clear
7:30 PM 62.6 °F - 39.2 °F 42% 29.95 in - East 11.5 mph - N/A   Clear
8:00 PM 62 °F - 32 °F 21% 29.98 in 6 mi ESE 6.7 mph - -   Clear
8:00 PM 60.8 °F - 39.2 °F 45% 29.95 in - East 8.1 mph - N/A   Clear
8:30 PM 59.0 °F - 37.4 °F 45% 29.95 in - East 9.2 mph - N/A   Clear
9:00 PM 58 °F - 31 °F 23% 29.99 in 6 mi East 6.7 mph - -   Clear
9:00 PM 57.2 °F - 37.4 °F 48% 29.98 in - East 6.9 mph - N/A   Clear
9:30 PM 57.2 °F - 35.6 °F 44% 29.98 in - East 6.9 mph - N/A   Clear
10:00 PM 55 °F - 30 °F 26% 30.01 in 6 mi ESE 4.5 mph - -   Clear
10:00 PM 55.4 °F - 35.6 °F 47% 29.98 in - East 5.8 mph - N/A   Clear
10:30 PM 51.8 °F - 35.6 °F 54% 29.98 in - ENE 5.8 mph - N/A   Clear
11:00 PM 52 °F - 29 °F 29% 30.01 in 6 mi East 4.5 mph - -   Clear
11:00 PM 51.8 °F - 35.6 °F 54% 29.98 in - ENE 4.6 mph - N/A   Clear
11:30 PM 51.8 °F - 35.6 °F 54% 29.98 in - NNE 3.5 mph - N/A   Clear